W4AWS Weather Reports


time (UTC)temp
C
wind
direction
speed
KPH
gust
KPH
rain 1hr
cm
rain 24hr
cm
rain mn
cm
humidity
%
barometer
mb
20260504023515 9 0.0 0.0 0.00 0.00 0.00 59 1018.5
20260504022515 9 0.0 0.0 0.00 0.00 0.00 59 1018.7
20260504021515 9 0.0 0.0 0.00 0.00 0.00 59 1018.6
20260504020515 9 0.0 0.0 0.00 0.00 0.00 57 1018.6
20260504015515 9 0.0 0.0 0.00 0.00 0.00 56 1018.6
20260504014515 9 0.0 0.0 0.00 0.00 0.00 53 1018.6
20260504013517 10 0.0 0.0 0.00 0.00 0.00 50 1018.5
20260504012537 10 0.0 0.0 0.00 0.00 0.00 49 1018.5
20260504011517 10 0.0 0.0 0.00 0.00 0.00 51 1018.3
20260504010537 10 0.0 0.0 0.00 0.00 0.00 49 1018.1
20260504005537 11 0.0 0.0 0.00 0.00 0.00 48 1018.0
20260504004517 11 0.0 0.0 0.00 0.00 0.00 47 1018.0
20260504003517 11 0.0 0.0 0.00 0.00 0.00 43 1017.9
20260504002517 12 0.0 0.0 0.00 0.00 0.00 42 1017.7
20260504001517 12 0.0 0.0 0.00 0.00 0.00 38 1017.5
20260504000517 12 0.0 0.0 0.00 0.00 0.00 37 1017.4
20260503235517 13 0.0 0.0 0.00 0.00 0.00 36 1017.3
20260503234537 13 0.0 0.0 0.00 0.00 0.00 36 1017.3
20260503233517 14 0.0 0.0 0.00 0.00 0.00 36 1017.4
20260503232517 14 0.0 0.0 0.00 0.00 0.00 34 1017.4
20260503231517 15 0.0 0.0 0.00 0.00 0.00 32 1017.3
20260503230537 15 0.0 0.0 0.00 0.00 0.00 32 1017.3
20260503225517 15 0.0 0.0 0.00 0.00 0.00 34 1017.2
20260503224517 15 0.0 1.6 0.00 0.00 0.00 30 1017.2
20260503223517 16 203 1.6 8.0 0.00 0.00 0.00 27 1017.3
20260503222517 16 135 1.6 4.8 0.00 0.00 0.00 29 1017.3
20260503221517 16 135 1.6 3.2 0.00 0.00 0.00 28 1017.3
20260503220517 16 68 1.6 4.8 0.00 0.00 0.00 24 1017.3
20260503215517 16 68 1.6 6.4 0.00 0.00 0.00 24 1017.2
20260503214517 16 0.0 3.2 0.00 0.00 0.00 25 1017.1
20260503213517 16 23 3.2 11.3 0.00 0.00 0.00 23 1017.1
20260503212517 16 90 1.6 6.4 0.00 0.00 0.00 24 1017.1
20260503211517 16 203 1.6 12.9 0.00 0.00 0.00 25 1017.1
20260503210517 16 293 3.2 6.4 0.00 0.00 0.00 24 1017.0
20260503205537 16 90 1.6 4.8 0.00 0.00 0.00 25 1017.1
20260503204537 16 45 3.2 8.0 0.00 0.00 0.00 23 1017.0
20260503203517 16 180 1.6 6.4 0.00 0.00 0.00 25 1017.0
20260503202537 16 45 3.2 6.4 0.00 0.00 0.00 25 1017.1
20260503201517 16 135 1.6 4.8 0.00 0.00 0.00 25 1017.3
20260503200517 16 180 3.2 8.0 0.00 0.00 0.00 26 1017.5
20260503195517 16 23 3.2 6.4 0.00 0.00 0.00 24 1017.7
20260503194517 17 45 3.2 12.9 0.00 0.00 0.00 23 1017.8
20260503193516 17 68 3.2 8.0 0.00 0.00 0.00 24 1017.7
20260503192517 17 180 1.6 8.0 0.00 0.00 0.00 25 1017.8
20260503191537 16 203 3.2 8.0 0.00 0.00 0.00 24 1017.9
20260503190517 16 315 3.2 8.0 0.00 0.00 0.00 25 1018.0
20260503185517 16 68 3.2 14.5 0.00 0.00 0.00 24 1017.9
20260503184517 16 23 3.2 6.4 0.00 0.00 0.00 26 1018.1
20260503183517 16 23 3.2 8.0 0.00 0.00 0.00 24 1018.2
20260503182517 16 68 3.2 6.4 0.00 0.00 0.00 26 1018.2
20260503181536 15 315 3.2 11.3 0.00 0.00 0.00 26 1018.2
20260503180517 16 45 3.2 14.5 0.00 0.00 0.00 25 1018.5
20260503175636 16 338 3.2 9.7 0.00 0.00 0.00 27 1018.6
20260503174516 15 270 3.2 9.7 0.00 0.00 0.00 27 1018.4
20260503173516 15 315 3.2 8.0 0.00 0.00 0.00 25 1018.7
20260503172517 15 338 4.8 14.5 0.00 0.00 0.00 24 1018.9
20260503171516 15 180 1.6 4.8 0.00 0.00 0.00 29 1018.7
20260503170516 15 338 3.2 12.9 0.00 0.00 0.00 27 1018.7
20260503150516 13 45 3.2 17.7 0.00 0.00 0.00 30 1019.1
20260503130516 11 113 3.2 9.7 0.00 0.00 0.00 41 1019.0
20260503110536 8 0.0 3.2 0.00 0.00 0.00 53 1017.8
20260503081525 10 0.0 0.0 0.00 0.00 0.00 59 1015.2
20260503080518 10 0.0 0.0 0.00 0.00 0.00 57 1015.0
20260503072517 10 0.0 3.2 0.00 0.00 0.00 55 1014.6
20260503071517 10 0.0 3.2 0.00 0.00 0.00 58 1014.4
20260503070536 9 0.0 3.2 0.00 0.00 0.00 59 1014.4
20260503054523 8 0.0 1.6 0.00 0.00 0.00 66 1014.0
20260503053518 8 0.0 0.0 0.00 0.00 0.00 66 1013.9
20260503052520 8 0.0 0.0 0.00 0.00 0.00 66 1014.1
20260503051541 8 0.0 0.0 0.00 0.00 0.00 66 1014.2
20260503050517 8 0.0 0.0 0.00 0.00 0.00 65 1014.2
20260503045518 8 0.0 0.0 0.00 0.00 0.00 65 1014.2
20260503044518 8 0.0 0.0 0.00 0.00 0.00 65 1014.2
20260503043520 8 0.0 0.0 0.00 0.00 0.00 64 1014.1
20260503042537 8 0.0 0.0 0.00 0.00 0.00 64 1014.4
20260503041517 8 0.0 0.0 0.00 0.00 0.00 64 1014.1
20260503040522 8 0.0 0.0 0.00 0.00 0.00 63 1014.3
20260503035516 8 0.0 0.0 0.00 0.00 0.00 63 1014.3
20260503034536 9 0.0 0.0 0.00 0.00 0.00 62 1014.2
20260503033536 9 0.0 0.0 0.00 0.00 0.00 63 1014.1
20260503032516 9 0.0 0.0 0.00 0.00 0.00 63 1014.1
20260503031515 10 0.0 0.0 0.00 0.00 0.00 63 1014.0
20260503030515 10 0.0 0.0 0.00 0.00 0.00 62 1014.0
20260503025515 10 0.0 0.0 0.00 0.00 0.00 61 1014.1
20260503024616 10 0.0 0.0 0.00 0.00 0.00 61 1014.1